Location: Bergheim
(50.9593°N, 6.6400°E)
Time: 22:55:23
(UTC+01:00)

ISS - Pass Details

Date: 04 October 2020
Orbit: 417 x 420 km, 51.6° (Epoch: 30 October)

Event Time Altitude Azimuth Distance (km) Brightness Sun altitude
Rises 20:18:41 0° 285° (WNW) 2,371 2.1 -12.6°
Reaches altitude 10° 20:20:56 10° 274° (W) 1,504 0.5 -12.9°
Maximum altitude 20:23:55 29° 212° (SSW) 797 -2.1 -13.4°
Enters shadow 20:26:27 13° 154° (SSE) 1,343 -1.5 -13.8°
